#timestamp,LO_Frequency,Hit 
1499868015.6,286046995.3,N
1499868035.4,286046994.9,N
1499868055.2,286046994.9,N
1499868075.1,286046995.0,N
1499868076.0,286046995.0,N
1499868095.8,286046997.5,N
1499868115.6,286046997.8,N
1499868135.5,286046998.0,N
1499868155.3,286046995.0,N
1499868175.2,286046993.7,N
1499868195.9,286046995.0,N
1499868215.7,286046996.9,N
1499868235.6,286046996.6,N
1499868255.4,286046996.6,N
1499868275.2,286046997.7,N
1499868295.1,286046996.9,N
1499868296.0,286046996.9,N
1499868315.8,286046997.1,N
1499868335.7,286046997.6,N
1499868355.5,286046997.3,N
1499868375.3,286046997.3,N
1499868395.2,286046997.1,N
1499868415.0,286046999.1,N
1499868415.9,286046999.1,N
1499868435.7,286046999.2,N
1499868455.6,286046996.7,N
1499868475.4,286046997.8,N
1499868495.3,286046997.9,N
1499868515.1,286046995.2,N
1499868535.8,286046997.3,N
1499868555.7,286046997.3,N
1499868575.5,286046999.6,N
1499868595.3,286046999.5,N
1499868615.2,286046999.5,N
1499868635.0,286046998.0,N
1499868635.9,286046998.0,N
1499868655.8,286046995.4,N
1499868675.6,286046995.0,N
1499868695.5,286046996.2,N
1499868715.3,286046995.5,N
1499868735.1,286046996.4,N
1499868755.9,286046996.1,N
1499868775.7,286046996.0,N
1499868795.6,286046996.2,N
1499868815.4,286046998.0,N
1499868835.2,286046995.6,N
1499868855.1,286046995.2,N
1499868856.0,286046995.2,N
1499868875.8,286046997.7,N
1499868895.6,286046995.3,N
1499868915.5,286046995.2,N
1499868935.3,286046996.1,N
1499868955.2,286046996.1,N
1499868975.9,286046995.5,N
1499868995.7,286046997.6,N
1499869015.6,286046996.6,N
1499869035.4,286046997.0,N
1499869055.3,286046997.6,N
1499869075.1,286046994.9,N
1499869076.0,286046994.9,N
1499869095.8,286046995.4,N
1499869115.7,286046995.6,N
1499869135.5,286046995.5,N
1499869155.3,286046993.7,N
1499869175.2,286046993.4,N
1499869195.0,286046993.9,N
1499869195.9,286046993.9,N
1499869215.8,286046995.8,N
1499869235.6,286046995.9,N
1499869255.4,286046993.3,N
1499869275.3,286046993.5,N
1499869295.1,286046994.5,N
1499869315.8,286046994.4,N
1499869335.7,286046994.5,N
1499869355.5,286046994.4,N
1499869375.4,286046994.1,N
1499869395.2,286046995.8,N
1499869415.0,286046994.0,N
1499869415.9,286046994.0,N
1499869435.8,286046993.4,N
1499869455.6,286046993.8,N
1499869475.4,286046994.3,N
1499869495.3,286046994.7,N
1499869515.1,286046994.6,N
1499869535.9,286046994.1,N
1499869555.7,286046994.2,N
1499869575.5,286046994.3,N
1499869595.4,286046994.5,N
1499869615.2,286046994.1,N
1499869635.1,286046992.5,N
1499869636.0,286046992.5,N
1499869655.8,286046993.6,N
1499869675.6,286046993.9,N
1499869695.5,286046996.0,N
1499869715.3,286046993.4,N
1499869735.1,286046994.6,N
1499869755.9,286046994.6,N
1499869775.7,286046993.4,N
1499869795.6,286046994.3,N
1499869815.4,286046992.0,N
1499869835.2,286046994.5,N
1499869855.1,286046996.0,N
1499869856.0,286046996.0,N
1499869875.8,286046996.0,N
1499869895.6,286046995.8,N
1499869915.5,286046998.0,N
1499869935.3,286046995.2,N
1499869955.2,286046995.3,N
1499869975.9,286046993.4,N
1499869995.7,286046992.3,N
1499870015.6,286046994.8,N
1499870035.4,286046993.7,N
1499870055.3,286046995.2,N
1499870075.1,286046994.0,N
1499870076.0,286046994.0,N
1499870095.8,286046986.3,Y
1499870115.7,286046994.3,N
1499870135.5,286046993.7,N
1499870155.3,286046996.0,N
1499870175.2,286046996.0,N
1499870195.0,286046995.4,N
1499870195.9,286046995.4,N
1499870215.8,286046997.2,N
1499870235.6,286046997.2,N
1499870255.4,286046997.0,N
1499870275.3,286046997.0,N
1499870295.1,286046997.7,N
1499870315.8,286046997.4,N
1499870335.7,286046994.9,N
1499870355.5,286046996.5,N
1499870375.4,286046998.4,N
1499870395.2,286047001.0,N
1499870415.0,286047001.1,N
1499870415.9,286047001.1,N
1499870435.8,286047001.1,N
1499870455.6,286047001.2,N
1499870475.4,286046998.2,N
1499870495.3,286046998.6,N
1499870515.1,286046999.6,N
1499870535.9,286046999.2,N
1499870555.7,286046998.1,N
1499870575.5,286046998.6,N
1499870595.4,286046998.9,N
1499870615.2,286047001.1,N
1499870635.1,286046998.6,N
1499870636.0,286046998.6,N
1499870655.8,286047001.1,N
1499870675.6,286046999.4,N
1499870695.5,286046999.6,N
1499870715.3,286046998.8,N
1499870735.1,286046998.5,N
1499870755.9,286046998.1,N
1499870775.7,286046998.7,N
1499870795.6,286047001.1,N
1499870815.4,286046998.8,N
1499870835.2,286046998.5,N
1499870855.1,286046999.2,N
1499870856.0,286046999.2,N
1499870875.8,286046997.0,N
1499870895.7,286046996.8,N
1499870915.5,286046999.3,N
1499870935.3,286046998.5,N
1499870955.2,286046999.4,N
1499870975.9,286046996.5,N
1499870995.7,286046996.8,N
1499871015.6,286046998.8,N
1499871035.4,286046998.3,N
1499871055.3,286046998.8,N
1499871075.1,286046998.3,N
1499871076.0,286046998.3,N
1499871095.8,286046999.4,N
1499871115.7,286046999.4,N
1499871135.5,286047000.9,N
1499871155.3,286047001.0,N
1499871175.2,286046999.7,N
1499871195.0,286047000.9,N
1499871195.9,286047000.9,N
1499871215.8,286047002.7,N
1499871235.6,286047000.4,N
1499871255.4,286047000.9,N
1499871275.3,286047002.8,N
1499871295.1,286047000.8,N
1499871315.9,286047001.2,N
1499871335.7,286046998.2,N
1499871355.5,286047000.8,N
1499871375.4,286046998.7,N
1499871395.2,286046998.9,N
1499871415.0,286047001.1,N
1499871415.9,286047001.1,N
1499871435.8,286046998.6,N
1499871455.6,286047001.2,N
1499871475.5,286046996.7,N
1499871495.3,286046997.0,N
1499871515.1,286046999.4,N
1499871535.9,286046998.9,N
1499871555.7,286046996.6,N
1499871575.6,286046997.7,N
1499871595.4,286046996.7,N
